FW5225 Weather Reports


Display with metric or nautical units.
time (UTC)temp
F
wind
direction
speed
MPH
gust
MPH
rain 1hr
in
rain 24hr
in
rain mn
in
humidity
%
barometer
mb
20260502224049 92 111 2.0 9.0 0.00 0.00 0.00 13 1007.1
20260502223548 92 136 1.0 8.0 0.00 0.00 0.00 13 1007.2
20260502223047 91 150 2.0 8.0 0.00 0.00 0.00 15 1007.4
20260502222548 92 316 5.0 8.0 0.00 0.00 0.00 14 1007.4
20260502222045 92 49 3.0 8.0 0.00 0.00 0.00 13 1007.6
20260502221545 92 42 4.0 7.0 0.00 0.00 0.00 12 1007.6
20260502221044 92 61 1.0 7.0 0.00 0.00 0.00 13 1007.7
20260502220544 92 53 1.0 8.0 0.00 0.00 0.00 14 1007.8
20260502220044 93 82 2.0 8.0 0.00 0.00 0.00 14 1007.9
20260502215544 92 173 1.0 9.0 0.00 0.00 0.00 13 1008.0
20260502215048 92 82 2.0 9.0 0.00 0.00 0.00 13 1008.1
20260502214547 93 51 2.0 8.0 0.00 0.00 0.00 13 1008.2
20260502214044 93 68 2.0 8.0 0.00 0.00 0.00 13 1008.3
20260502213543 94 168 3.0 12.0 0.00 0.00 0.00 12 1008.4
20260502213046 94 173 2.0 9.0 0.00 0.00 0.00 12 1008.4
20260502212543 95 118 1.0 5.0 0.00 0.00 0.00 12 1008.5
20260502212043 95 304 2.0 5.0 0.00 0.00 0.00 12 1008.5
20260502211542 94 78 0.0 5.0 0.00 0.00 0.00 13 1008.6
20260502211042 94 122 0.0 5.0 0.00 0.00 0.00 12 1008.6
20260502210540 94 267 2.0 6.0 0.00 0.00 0.00 12 1008.7
20260502210039 93 227 1.0 6.0 0.00 0.00 0.00 12 1008.7
20260502205540 92 154 1.0 9.0 0.00 0.00 0.00 13 1008.8
20260502205037 91 132 1.0 9.0 0.00 0.00 0.00 16 1008.9
20260502204538 91 355 0.0 8.0 0.00 0.00 0.00 17 1008.9
20260502204037 92 94 1.0 4.0 0.00 0.00 0.00 14 1009.0
20260502203536 91 327 0.0 4.0 0.00 0.00 0.00 16 1008.9
20260502203050 91 327 1.0 11.0 0.00 0.00 0.00 14 1009.0
20260502202540 91 214 4.0 11.0 0.00 0.00 0.00 13 1009.3
20260502202036 92 72 3.0 9.0 0.00 0.00 0.00 14 1009.3
20260502201535 92 129 3.0 8.0 0.00 0.00 0.00 15 1009.3
20260502201038 91 126 2.0 6.0 0.00 0.00 0.00 17 1009.3
20260502200534 91 69 0.0 5.0 0.00 0.00 0.00 16 1009.4
20260502200032 90 81 2.0 6.0 0.00 0.00 0.00 16 1009.4
20260502195530 90 156 3.0 7.0 0.00 0.00 0.00 18 1009.6
20260502195030 89 19 2.0 10.0 0.00 0.00 0.00 19 1009.5
20260502194533 90 105 5.0 10.0 0.00 0.00 0.00 18 1009.7
20260502194030 90 82 3.0 10.0 0.00 0.00 0.00 19 1009.8
20260502193529 90 75 4.0 10.0 0.00 0.00 0.00 20 1009.8
20260502193029 90 219 2.0 5.0 0.00 0.00 0.00 21 1009.9
20260502192528 89 119 0.0 9.0 0.00 0.00 0.00 21 1010.0
20260502192029 88 88 2.0 12.0 0.00 0.00 0.00 21 1010.1
20260502191525 88 120 3.0 12.0 0.00 0.00 0.00 22 1010.2
20260502191025 88 61 5.0 12.0 0.00 0.00 0.00 21 1010.3
20260502190525 88 38 1.0 7.0 0.00 0.00 0.00 22 1010.3
20260502190024 88 112 2.0 12.0 0.00 0.00 0.00 22 1010.5
20260502185523 88 80 3.0 12.0 0.00 0.00 0.00 23 1010.5
20260502185023 88 123 3.0 9.0 0.00 0.00 0.00 22 1010.6
20260502184525 88 198 1.0 6.0 0.00 0.00 0.00 22 1010.8
20260502184020 88 88 3.0 8.0 0.00 0.00 0.00 23 1010.8
20260502183519 88 85 3.0 8.0 0.00 0.00 0.00 23 1010.8
20260502183018 87 82 1.0 9.0 0.00 0.00 0.00 23 1011.0
20260502182520 87 165 4.0 9.0 0.00 0.00 0.00 23 1011.0
20260502182016 87 67 3.0 8.0 0.00 0.00 0.00 24 1011.1
20260502181514 87 92 2.0 9.0 0.00 0.00 0.00 25 1011.1
20260502181014 87 154 3.0 10.0 0.00 0.00 0.00 25 1011.2
20260502180513 86 171 3.0 10.0 0.00 0.00 0.00 25 1011.3
20260502170105 84 67 3.0 9.0 0.00 0.00 0.00 24 1011.8
20260502164053 83 112 2.0 9.0 0.00 0.00 0.00 25 1011.7
20260502163551 83 96 4.0 9.0 0.00 0.00 0.00 25 1011.7
20260502163050 82 102 4.0 9.0 0.00 0.00 0.00 25 1011.6
20260502162549 82 117 2.0 10.0 0.00 0.00 0.00 25 1011.6
20260502162047 82 86 5.0 10.0 0.00 0.00 0.00 25 1011.6
20260502161547 82 130 2.0 9.0 0.00 0.00 0.00 26 1011.5
20260502161045 81 97 3.0 9.0 0.00 0.00 0.00 27 1011.5
20260502160543 80 65 2.0 8.0 0.00 0.00 0.00 26 1011.6
20260502152033 79 120 3.0 13.0 0.00 0.00 0.00 25 1011.4
20260502151534 78 136 6.0 13.0 0.00 0.00 0.00 26 1011.4
20260502151031 78 53 2.0 6.0 0.00 0.00 0.00 24 1011.3
20260502150528 78 82 3.0 7.0 0.00 0.00 0.00 24 1011.3
20260502130557 73 18 3.0 8.0 0.00 0.00 0.00 24 1009.9
20260502130103 73 50 3.0 7.0 0.00 0.00 0.00 23 1009.8
20260502123552 73 26 3.0 6.0 0.00 0.00 0.00 22 1009.4
20260502123052 73 33 3.0 9.0 0.00 0.00 0.00 22 1009.4
20260502122552 73 24 5.0 9.0 0.00 0.00 0.00 22 1009.3
20260502122051 73 36 5.0 8.0 0.00 0.00 0.00 22 1009.3
20260502121551 73 19 3.0 8.0 0.00 0.00 0.00 23 1009.2
20260502121049 73 26 4.0 8.0 0.00 0.00 0.00 22 1009.1
20260502120552 73 63 5.0 8.0 0.00 0.00 0.00 22 1009.1
20260502115549 74 31 4.0 8.0 0.00 0.00 0.00 23 1009.1
20260502115049 74 26 3.0 8.0 0.00 0.00 0.00 23 1009.2
20260502114553 74 29 4.0 8.0 0.00 0.00 0.00 22 1009.2
20260502114048 74 46 4.0 8.0 0.00 0.00 0.00 23 1009.2
20260502113545 74 355 4.0 8.0 0.00 0.00 0.00 23 1009.1
20260502113046 74 26 4.0 8.0 0.00 0.00 0.00 22 1009.0
20260502112544 74 33 4.0 8.0 0.00 0.00 0.00 22 1009.1
20260502112044 74 50 4.0 9.0 0.00 0.00 0.00 22 1009.1
20260502111543 75 14 5.0 9.0 0.00 0.00 0.00 22 1009.0
20260502111043 75 37 5.0 8.0 0.00 0.00 0.00 21 1009.0
20260502110542 75 34 4.0 8.0 0.00 0.00 0.00 21 1009.0
20260502110044 75 67 4.0 8.0 0.00 0.00 0.00 21 1009.0
20260502105542 75 46 4.0 8.0 0.00 0.00 0.00 21 1009.1
20260502105041 75 42 1.0 9.0 0.00 0.00 0.00 22 1009.0
20260502104541 75 32 3.0 9.0 0.00 0.00 0.00 22 1009.0
20260502104039 75 355 3.0 6.0 0.00 0.00 0.00 21 1008.9
20260502103542 75 26 3.0 6.0 0.00 0.00 0.00 22 1008.9
20260502103038 75 32 4.0 6.0 0.00 0.00 0.00 22 1008.9
20260502102537 76 51 3.0 8.0 0.00 0.00 0.00 21 1008.9
20260502102037 76 42 3.0 7.0 0.00 0.00 0.00 21 1008.8
20260502101541 76 40 3.0 7.0 0.00 0.00 0.00 21 1008.9
20260502101034 76 61 3.0 7.0 0.00 0.00 0.00 22 1008.8
20260502100534 76 52 4.0 8.0 0.00 0.00 0.00 21 1008.7
20260502091529 77 50 3.0 6.0 0.00 0.00 0.00 21 1008.5
20260502091028 77 47 3.0 11.0 0.00 0.00 0.00 20 1008.5
20260502090527 77 51 3.0 11.0 0.00 0.00 0.00 19 1008.5
20260502071510 81 5 5.0 13.0 0.00 0.00 0.00 16 1007.8
20260502071013 81 324 6.0 10.0 0.00 0.00 0.00 15 1007.8
20260502070509 81 34 5.0 9.0 0.00 0.00 0.00 15 1007.7
20260502070007 81 344 3.0 7.0 0.00 0.00 0.00 15 1007.7
20260502065506 82 355 3.0 7.0 0.00 0.00 0.00 16 1007.7
20260502065007 82 350 3.0 8.0 0.00 0.00 0.00 15 1007.7
20260502064519 83 340 3.0 12.0 0.00 0.00 0.00 14 1007.6
20260502064006 83 355 5.0 13.0 0.00 0.00 0.00 13 1007.7
20260502063506 83 306 6.0 12.0 0.00 0.00 0.00 13 1007.6
20260502063005 83 355 6.0 16.0 0.00 0.00 0.00 13 1007.6
20260502062506 83 300 6.0 16.0 0.00 0.00 0.00 13 1007.5
20260502062005 83 301 7.0 12.0 0.00 0.00 0.00 13 1007.5
20260502061504 82 337 7.0 12.0 0.00 0.00 0.00 14 1007.5
20260502061004 82 328 5.0 10.0 0.00 0.00 0.00 14 1007.5
20260502060504 81 331 7.0 10.0 0.00 0.00 0.00 14 1007.5
20260502060004 81 311 4.0 10.0 0.00 0.00 0.00 15 1007.4
20260502055504 81 321 4.0 7.0 0.00 0.00 0.00 15 1007.5
20260502055005 81 314 3.0 8.0 0.00 0.00 0.00 15 1007.3
20260502054504 81 313 3.0 8.0 0.00 0.00 0.00 15 1007.4
20260502054004 81 265 3.0 6.0 0.00 0.00 0.00 15 1007.5
20260502053503 81 300 3.0 6.0 0.00 0.00 0.00 16 1007.5
20260502053004 81 288 2.0 6.0 0.00 0.00 0.00 16 1007.5
20260502052505 81 255 2.0 5.0 0.00 0.00 0.00 15 1007.4
20260502052003 81 265 2.0 6.0 0.00 0.00 0.00 15 1007.5
20260502051502 80 269 2.0 6.0 0.00 0.00 0.00 17 1007.5
20260502051002 80 260 3.0 6.0 0.00 0.00 0.00 16 1007.5
20260502050501 80 281 2.0 3.0 0.00 0.00 0.00 17 1007.5
20260502050002 80 208 0.0 2.0 0.00 0.00 0.00 18 1007.3
20260502045501 80 269 1.0 4.0 0.00 0.00 0.00 17 1007.3
20260502045003 80 263 1.0 6.0 0.00 0.00 0.00 18 1007.3
20260502044504 80 284 1.0 6.0 0.00 0.00 0.00 18 1007.2
20260502044002 80 250 1.0 4.0 0.00 0.00 0.00 18 1007.2
20260502043600 80 215 1.0 4.0 0.00 0.00 0.00 18 1007.1
20260502043101 80 213 1.0 4.0 0.00 0.00 0.00 18 1007.1
20260502042600 80 226 0.0 3.0 0.00 0.00 0.00 18 1007.1
20260502042100 81 260 0.0 3.0 0.00 0.00 0.00 18 1007.0
20260502041559 80 272 2.0 3.0 0.00 0.00 0.00 18 1007.0
20260502041103 80 266 1.0 3.0 0.00 0.00 0.00 18 1006.9
20260502040559 81 262 0.0 2.0 0.00 0.00 0.00 18 1006.8
20260502040108 81 249 0.0 2.0 0.00 0.00 0.00 18 1006.7
20260502035559 81 281 0.0 2.0 0.00 0.00 0.00 19 1006.7
20260502035103 81 258 0.0 2.0 0.00 0.00 0.00 18 1006.7
20260502034559 81 265 0.0 2.0 0.00 0.00 0.00 18 1006.5
20260502034059 81 263 0.0 2.0 0.00 0.00 0.00 19 1006.5
20260502033558 82 264 0.0 1.0 0.00 0.00 0.00 18 1006.4
20260502033059 82 259 0.0 2.0 0.00 0.00 0.00 18 1006.5
20260502032559 82 254 0.0 2.0 0.00 0.00 0.00 18 1006.4
20260502032057 82 254 0.0 2.0 0.00 0.00 0.00 18 1006.3
20260502031631 82 265 1.0 2.0 0.00 0.00 0.00 18 1006.3
20260502031058 83 270 0.0 4.0 0.00 0.00 0.00 18 1006.3
20260502030558 83 261 0.0 4.0 0.00 0.00 0.00 18 1006.2
20260502030100 83 273 0.0 3.0 0.00 0.00 0.00 17 1006.1
20260502025557 83 224 0.0 2.0 0.00 0.00 0.00 18 1006.0
20260502025057 83 230 0.0 3.0 0.00 0.00 0.00 17 1005.9
20260502024556 84 248 0.0 5.0 0.00 0.00 0.00 17 1005.9
20260502024057 84 213 1.0 5.0 0.00 0.00 0.00 17 1005.9
20260502023557 84 235 0.0 4.0 0.00 0.00 0.00 17 1005.9
20260502023058 84 202 0.0 4.0 0.00 0.00 0.00 18 1005.9
20260502022555 84 239 1.0 4.0 0.00 0.00 0.00 17 1005.8
20260502022055 85 176 0.0 2.0 0.00 0.00 0.00 17 1005.7
20260502021555 85 232 0.0 2.0 0.00 0.00 0.00 17 1005.6
20260502021055 85 254 0.0 4.0 0.00 0.00 0.00 17 1005.6
20260502020556 86 211 1.0 4.0 0.00 0.00 0.00 16 1005.6
20260502020111 86 213 0.0 5.0 0.00 0.00 0.00 16 1005.6
20260502015557 86 244 0.0 6.0 0.00 0.00 0.00 16 1005.6
20260502015054 87 200 1.0 6.0 0.00 0.00 0.00 16 1005.4
20260502014556 87 234 1.0 6.0 0.00 0.00 0.00 16 1005.5
20260502014058 88 214 1.0 7.0 0.00 0.00 0.00 15 1005.4
20260502013554 88 210 2.0 7.0 0.00 0.00 0.00 15 1005.5
20260502013053 89 236 1.0 7.0 0.00 0.00 0.00 15 1005.5
20260502012554 90 247 2.0 7.0 0.00 0.00 0.00 15 1005.5
20260502012054 90 217 1.0 6.0 0.00 0.00 0.00 15 1005.4
20260502011557 90 159 1.0 4.0 0.00 0.00 0.00 14 1005.5
20260502011055 90 210 1.0 3.0 0.00 0.00 0.00 14 1005.4
20260502010553 91 224 1.0 4.0 0.00 0.00 0.00 14 1005.4
20260502010054 90 196 1.0 3.0 0.00 0.00 0.00 14 1005.4
20260502005553 90 189 0.0 3.0 0.00 0.00 0.00 14 1005.3
20260502005053 90 171 0.0 6.0 0.00 0.00 0.00 13 1005.5
20260502004557 90 240 2.0 6.0 0.00 0.00 0.00 12 1005.5
20260502004052 91 292 1.0 5.0 0.00 0.00 0.00 13 1005.4
20260502003551 91 259 2.0 4.0 0.00 0.00 0.00 13 1005.4
20260502003111 91 215 0.0 2.0 0.00 0.00 0.00 13 1005.4
20260502002550 90 211 0.0 5.0 0.00 0.00 0.00 13 1005.4
20260502002050 90 300 2.0 5.0 0.00 0.00 0.00 13 1005.5
20260502001625 90 355 1.0 5.0 0.00 0.00 0.00 14 1005.5
20260502001049 90 290 2.0 7.0 0.00 0.00 0.00 13 1005.6
20260502000549 90 300 2.0 7.0 0.00 0.00 0.00 13 1005.6
20260502000049 90 46 2.0 6.0 0.00 0.00 0.00 13 1005.5
20260501235547 90 270 1.0 7.0 0.00 0.00 0.00 13 1005.6
20260501235048 90 355 4.0 7.0 0.00 0.00 0.00 13 1005.6
20260501234549 90 336 2.0 9.0 0.00 0.00 0.00 14 1005.6
20260501234048 90 270 3.0 6.0 0.00 0.00 0.00 14 1005.6
20260501233549 89 207 1.0 7.0 0.00 0.00 0.00 14 1005.6
20260501233047 89 229 3.0 9.0 0.00 0.00 0.00 14 1005.6
20260501232547 89 294 5.0 10.0 0.00 0.00 0.00 15 1005.6
20260501232046 89 323 4.0 10.0 0.00 0.00 0.00 16 1005.6
20260501231545 90 307 5.0 9.0 0.00 0.00 0.00 15 1005.7
20260501231045 90 288 3.0 8.0 0.00 0.00 0.00 16 1005.7
20260501230546 90 279 4.0 10.0 0.00 0.00 0.00 16 1005.8
20260501230045 91 250 4.0 10.0 0.00 0.00 0.00 17 1005.7
20260501225545 91 213 1.0 5.0 0.00 0.00 0.00 17 1005.7
20260501225044 90 223 0.0 7.0 0.00 0.00 0.00 17 1005.8
20260501224556 90 242 3.0 8.0 0.00 0.00 0.00 16 1005.9